N850SB LESU-LFLY

Flight info

Callsign N850SB
Flight time 1h 24m
Altitude 28000
Route SAL DCT AFRIC J27 MEN DCT MEZIN
Aircraft TBM8/L-SDFGRWY/S

Departure

Time 2026-05-07 11:43
Airport Pirineus - la Seu d'Urgel Airport (LESU)

Arrival

Time 2026-05-07 13:08
Airport Lyon Bron Airport (LFLY)
Time Latitude Longitude Altitude Speed Heading
2026-05-07 11:26 42.33755 1.40465 2632 ft 0 kts 262°
2026-05-07 11:35 42.33749 1.40441 2632 ft 3 kts 213°
2026-05-07 11:35 42.33710 1.40480 2632 ft 10 kts 117°
2026-05-07 11:35 42.33669 1.40514 2633 ft 9 kts 161°
2026-05-07 11:36 42.33645 1.40552 2634 ft 0 kts 118°
2026-05-07 11:36 42.33631 1.40584 2634 ft 11 kts 122°
2026-05-07 11:36 42.33649 1.40698 2633 ft 20 kts 32°
2026-05-07 11:36 42.33802 1.40819 2632 ft 30 kts 30°
2026-05-07 11:37 42.33990 1.40973 2632 ft 34 kts 31°
2026-05-07 11:37 42.34196 1.41141 2633 ft 36 kts 31°
2026-05-07 11:37 42.34384 1.41291 2633 ft 24 kts 31°
2026-05-07 11:37 42.34483 1.41399 2633 ft 14 kts 51°
2026-05-07 11:38 42.34533 1.41503 2633 ft 13 kts 59°
2026-05-07 11:38 42.34587 1.41527 2632 ft 0 kts 320°
2026-05-07 11:42 42.34594 1.41517 2632 ft 10 kts 315°
2026-05-07 11:42 42.34578 1.41447 2633 ft 9 kts 215°
2026-05-07 11:43 42.34379 1.41289 2633 ft 59 kts 210°
2026-05-07 11:43 42.33896 1.40893 2693 ft 96 kts 208°
2026-05-07 11:43 42.33297 1.40377 3055 ft 109 kts 212°
2026-05-07 11:43 42.32665 1.39817 3686 ft 106 kts 215°
2026-05-07 11:44 42.32132 1.39072 4130 ft 114 kts 229°
2026-05-07 11:44 42.31535 1.38365 4611 ft 114 kts 222°
2026-05-07 11:44 42.30918 1.37677 5169 ft 117 kts 218°
2026-05-07 11:44 42.30282 1.36984 5618 ft 117 kts 218°
2026-05-07 11:45 42.29687 1.36267 6045 ft 116 kts 220°
2026-05-07 11:45 42.28951 1.35876 6443 ft 117 kts 182°
2026-05-07 11:45 42.28129 1.35766 6814 ft 120 kts 189°
2026-05-07 11:45 42.27302 1.35599 7175 ft 121 kts 188°
2026-05-07 11:46 42.26468 1.35428 7539 ft 122 kts 189°
2026-05-07 11:46 42.25620 1.35265 7890 ft 124 kts 187°
2026-05-07 11:46 42.24765 1.35095 8247 ft 124 kts 188°
2026-05-07 11:46 42.23905 1.34923 8616 ft 125 kts 188°
2026-05-07 11:47 42.23039 1.34748 8976 ft 126 kts 188°
2026-05-07 11:47 42.22164 1.34572 9345 ft 128 kts 188°
2026-05-07 11:47 42.21281 1.34395 9704 ft 129 kts 188°
2026-05-07 11:47 42.20394 1.34220 10020 ft 133 kts 188°
2026-05-07 11:48 42.19472 1.34029 10348 ft 134 kts 189°
2026-05-07 11:48 42.18550 1.33843 10692 ft 134 kts 189°
2026-05-07 11:48 42.17603 1.33653 10981 ft 139 kts 189°
2026-05-07 11:48 42.16645 1.33459 11330 ft 139 kts 189°
2026-05-07 11:49 42.15689 1.33267 11655 ft 139 kts 189°
2026-05-07 11:49 42.14733 1.33078 11996 ft 139 kts 189°
2026-05-07 11:49 42.13775 1.32887 12340 ft 139 kts 189°
2026-05-07 11:49 42.12819 1.32695 12692 ft 139 kts 189°
2026-05-07 11:50 42.11855 1.32504 12996 ft 142 kts 189°
2026-05-07 11:50 42.10861 1.32301 13303 ft 145 kts 189°
2026-05-07 11:50 42.09888 1.31987 13643 ft 144 kts 203°
2026-05-07 11:50 42.08963 1.31478 13946 ft 144 kts 201°
2026-05-07 11:51 42.08025 1.30998 14252 ft 145 kts 201°
2026-05-07 11:51 42.07081 1.30511 14555 ft 145 kts 201°
2026-05-07 11:51 42.06136 1.30022 14855 ft 146 kts 201°
2026-05-07 11:51 42.05187 1.29535 15150 ft 146 kts 201°
2026-05-07 11:52 42.04235 1.29040 15462 ft 147 kts 201°
2026-05-07 11:52 42.03277 1.28547 15742 ft 150 kts 201°
2026-05-07 11:52 42.02296 1.28038 16008 ft 152 kts 201°
2026-05-07 11:52 42.01308 1.27529 16301 ft 152 kts 201°
2026-05-07 11:53 42.00319 1.27019 16601 ft 152 kts 201°
2026-05-07 11:53 41.99327 1.26509 16894 ft 153 kts 201°
2026-05-07 11:53 41.98346 1.26003 17199 ft 153 kts 201°
2026-05-07 11:53 41.97336 1.25483 17417 ft 159 kts 201°
2026-05-07 11:54 41.96296 1.24944 17702 ft 161 kts 201°
2026-05-07 11:54 41.95252 1.24406 18015 ft 161 kts 201°
2026-05-07 11:54 41.94202 1.23870 18316 ft 161 kts 201°
2026-05-07 11:54 41.93153 1.23329 18590 ft 162 kts 201°
2026-05-07 11:55 41.92098 1.22788 18856 ft 162 kts 201°
2026-05-07 11:55 41.91043 1.22244 19116 ft 163 kts 201°
2026-05-07 11:55 41.89985 1.21702 19383 ft 163 kts 201°
2026-05-07 11:55 41.88925 1.21158 19648 ft 163 kts 201°
2026-05-07 11:56 41.87865 1.20613 19899 ft 164 kts 202°
2026-05-07 11:56 41.86811 1.20070 20153 ft 164 kts 201°
2026-05-07 11:56 41.85746 1.19524 20411 ft 164 kts 202°
2026-05-07 11:56 41.84677 1.18976 20655 ft 165 kts 201°
2026-05-07 11:57 41.83604 1.18427 20900 ft 165 kts 202°
2026-05-07 11:57 41.82529 1.17876 21147 ft 166 kts 202°
2026-05-07 11:57 41.81451 1.17323 21398 ft 166 kts 202°
2026-05-07 11:57 41.80373 1.16770 21651 ft 166 kts 202°
2026-05-07 11:58 41.79290 1.16220 21902 ft 167 kts 201°
2026-05-07 11:58 41.78132 1.16110 22155 ft 173 kts 171°
2026-05-07 11:58 41.77083 1.16957 22386 ft 185 kts 137°
2026-05-07 11:58 41.76512 1.18536 22617 ft 197 kts 105°
2026-05-07 11:59 41.76635 1.20393 22838 ft 206 kts 72°
2026-05-07 11:59 41.77454 1.21980 23062 ft 210 kts 40°
2026-05-07 11:59 41.78742 1.22880 23286 ft 210 kts 15°
2026-05-07 11:59 41.80089 1.23591 23474 ft 213 kts 26°
2026-05-07 12:00 41.81271 1.24793 23683 ft 214 kts 43°
2026-05-07 12:00 41.82349 1.26181 23875 ft 215 kts 43°
2026-05-07 12:00 41.83464 1.27540 24053 ft 217 kts 40°
2026-05-07 12:00 41.84598 1.28875 24232 ft 218 kts 41°
2026-05-07 12:01 41.85736 1.30223 24417 ft 219 kts 41°
2026-05-07 12:01 41.86880 1.31584 24606 ft 220 kts 41°
2026-05-07 12:01 41.88015 1.32936 24788 ft 221 kts 41°
2026-05-07 12:01 41.89183 1.34328 24974 ft 222 kts 41°
2026-05-07 12:02 41.90343 1.35709 25158 ft 223 kts 41°
2026-05-07 12:02 41.91490 1.37076 25337 ft 224 kts 41°
2026-05-07 12:02 41.92663 1.38474 25524 ft 226 kts 41°
2026-05-07 12:02 41.93836 1.39876 25706 ft 227 kts 41°
2026-05-07 12:03 41.95021 1.41291 25893 ft 228 kts 41°
2026-05-07 12:03 41.96212 1.42711 26061 ft 229 kts 41°
2026-05-07 12:03 41.97403 1.44135 26228 ft 230 kts 41°
2026-05-07 12:03 41.98602 1.45569 26399 ft 231 kts 41°
2026-05-07 12:04 41.99806 1.47011 26572 ft 232 kts 41°
2026-05-07 12:04 42.01017 1.48459 26753 ft 233 kts 41°
2026-05-07 12:04 42.02230 1.49913 26922 ft 234 kts 41°
2026-05-07 12:04 42.03435 1.51356 27087 ft 235 kts 41°
2026-05-07 12:05 42.04659 1.52824 27252 ft 236 kts 41°
2026-05-07 12:05 42.05889 1.54301 27434 ft 237 kts 41°
2026-05-07 12:05 42.07123 1.55781 27601 ft 238 kts 41°
2026-05-07 12:05 42.08363 1.57269 27782 ft 239 kts 41°
2026-05-07 12:06 42.09606 1.58764 27946 ft 241 kts 41°
2026-05-07 12:06 42.10879 1.60295 27966 ft 250 kts 41°
2026-05-07 12:06 42.12190 1.61878 27976 ft 256 kts 41°
2026-05-07 12:06 42.13534 1.63493 27976 ft 262 kts 41°
2026-05-07 12:07 42.14904 1.65144 27984 ft 267 kts 41°
2026-05-07 12:07 42.16311 1.66837 27962 ft 275 kts 41°
2026-05-07 12:07 42.17761 1.68576 27962 ft 283 kts 41°
2026-05-07 12:07 42.19249 1.70364 27967 ft 291 kts 41°
2026-05-07 12:08 42.20778 1.72219 27973 ft 299 kts 41°
2026-05-07 12:08 42.22336 1.74108 27979 ft 304 kts 41°
2026-05-07 12:08 42.23925 1.76030 27980 ft 309 kts 41°
2026-05-07 12:08 42.25542 1.77984 27982 ft 315 kts 41°
2026-05-07 12:09 42.27183 1.79973 27979 ft 319 kts 41°
2026-05-07 12:09 42.28847 1.81988 27979 ft 323 kts 41°
2026-05-07 12:09 42.30515 1.84011 27980 ft 327 kts 41°
2026-05-07 12:09 42.32216 1.86076 27977 ft 330 kts 41°
2026-05-07 12:10 42.33931 1.88159 27973 ft 332 kts 41°
2026-05-07 12:10 42.35655 1.90253 27978 ft 334 kts 41°
2026-05-07 12:10 42.37386 1.92359 27971 ft 335 kts 41°
2026-05-07 12:10 42.39125 1.94477 27977 ft 337 kts 41°
2026-05-07 12:11 42.40868 1.96600 27976 ft 338 kts 41°
2026-05-07 12:11 42.42615 1.98729 27979 ft 339 kts 41°
2026-05-07 12:11 42.44388 2.00841 27980 ft 340 kts 37°
2026-05-07 12:11 42.46424 2.02444 27985 ft 339 kts 23°
2026-05-07 12:12 42.48583 2.03734 27984 ft 339 kts 21°
2026-05-07 12:12 42.50720 2.05012 27985 ft 340 kts 22°
2026-05-07 12:12 42.52863 2.06389 27985 ft 341 kts 24°
2026-05-07 12:12 42.55007 2.07776 27985 ft 341 kts 23°
2026-05-07 12:13 42.57159 2.09131 27986 ft 341 kts 22°
2026-05-07 12:13 42.59311 2.10481 27990 ft 341 kts 22°
2026-05-07 12:13 42.61470 2.11851 27992 ft 341 kts 23°
2026-05-07 12:13 42.63619 2.13218 27991 ft 341 kts 23°
2026-05-07 12:14 42.65775 2.14586 27993 ft 342 kts 23°
2026-05-07 12:14 42.67930 2.15953 27992 ft 343 kts 23°
2026-05-07 12:14 42.69363 2.16864 27992 ft 343 kts 23°
2026-05-07 12:14 42.71523 2.18238 27991 ft 342 kts 23°
2026-05-07 12:15 42.73681 2.19610 27991 ft 342 kts 22°
2026-05-07 12:15 42.75835 2.20981 27994 ft 342 kts 23°
2026-05-07 12:15 42.78683 2.22797 27993 ft 342 kts 23°
2026-05-07 12:15 42.80835 2.24171 27995 ft 342 kts 22°
2026-05-07 12:16 42.82292 2.25100 27992 ft 342 kts 22°
2026-05-07 12:16 42.84450 2.26478 27990 ft 342 kts 22°
2026-05-07 12:16 42.86609 2.27858 27993 ft 342 kts 23°
2026-05-07 12:16 42.88763 2.29238 27995 ft 342 kts 22°
2026-05-07 12:17 42.90887 2.30598 27995 ft 341 kts 22°
2026-05-07 12:17 42.93035 2.31972 27997 ft 341 kts 22°
2026-05-07 12:17 42.95183 2.33352 27992 ft 341 kts 23°
2026-05-07 12:17 42.97326 2.34726 27993 ft 341 kts 22°
2026-05-07 12:18 42.99474 2.36107 27999 ft 341 kts 22°
2026-05-07 12:18 43.01619 2.37483 27998 ft 341 kts 22°
2026-05-07 12:18 43.03766 2.38864 27996 ft 340 kts 23°
2026-05-07 12:18 43.05906 2.40244 27998 ft 340 kts 23°
2026-05-07 12:19 43.08047 2.41625 27998 ft 340 kts 22°
2026-05-07 12:19 43.10188 2.43003 27998 ft 339 kts 22°
2026-05-07 12:19 43.12326 2.44381 28002 ft 339 kts 22°
2026-05-07 12:19 43.14465 2.45764 27999 ft 339 kts 22°
2026-05-07 12:20 43.16598 2.47144 27995 ft 340 kts 23°
2026-05-07 12:20 43.20858 2.49897 27999 ft 340 kts 22°
2026-05-07 12:20 43.23000 2.51286 27999 ft 341 kts 23°
2026-05-07 12:21 43.25146 2.52678 28000 ft 341 kts 22°
2026-05-07 12:21 43.27289 2.54068 27998 ft 341 kts 22°
2026-05-07 12:21 43.29433 2.55459 27998 ft 341 kts 22°
2026-05-07 12:21 43.31575 2.56852 27999 ft 341 kts 22°
2026-05-07 12:22 43.33553 2.58127 28002 ft 340 kts 22°
2026-05-07 12:22 43.37831 2.60918 27999 ft 340 kts 23°
2026-05-07 12:23 43.42107 2.63713 28008 ft 339 kts 22°
2026-05-07 12:23 43.46349 2.66481 28010 ft 339 kts 22°
2026-05-07 12:24 43.50605 2.69267 28010 ft 339 kts 22°
2026-05-07 12:24 43.54863 2.72054 28009 ft 338 kts 22°
2026-05-07 12:25 43.59117 2.74849 28001 ft 338 kts 22°
2026-05-07 12:25 43.61244 2.76245 28000 ft 338 kts 22°
2026-05-07 12:25 43.63367 2.77640 27997 ft 338 kts 22°
2026-05-07 12:25 43.65492 2.79039 27992 ft 338 kts 22°
2026-05-07 12:26 43.67617 2.80438 27993 ft 338 kts 22°
2026-05-07 12:26 43.69741 2.81839 27994 ft 338 kts 22°
2026-05-07 12:26 43.71839 2.83223 27993 ft 338 kts 22°
2026-05-07 12:26 43.73987 2.84640 27992 ft 338 kts 22°
2026-05-07 12:27 43.76082 2.86025 27986 ft 338 kts 22°
2026-05-07 12:27 43.78254 2.87249 27986 ft 335 kts 12°
2026-05-07 12:27 43.80510 2.88030 27990 ft 334 kts
2026-05-07 12:27 43.82776 2.88741 27989 ft 334 kts
2026-05-07 12:28 43.85033 2.89519 27990 ft 334 kts 11°
2026-05-07 12:28 43.87286 2.90331 27983 ft 334 kts 11°
2026-05-07 12:28 43.89543 2.91115 27984 ft 334 kts 10°
2026-05-07 12:28 43.91803 2.91887 27986 ft 334 kts 10°
2026-05-07 12:29 43.94064 2.92671 27985 ft 334 kts 11°
2026-05-07 12:29 43.96322 2.93462 27987 ft 334 kts 11°
2026-05-07 12:29 43.98553 2.94238 27991 ft 334 kts 10°
2026-05-07 12:29 44.00807 2.95021 27987 ft 334 kts 10°
2026-05-07 12:30 44.03054 2.95804 27992 ft 333 kts 10°
2026-05-07 12:30 44.05309 2.96591 27988 ft 333 kts 11°
2026-05-07 12:30 44.07562 2.97377 27989 ft 333 kts 10°
2026-05-07 12:30 44.09811 2.98162 27995 ft 333 kts 10°
2026-05-07 12:31 44.12056 2.98946 27991 ft 333 kts 11°
2026-05-07 12:31 44.14299 2.99734 27994 ft 332 kts 11°
2026-05-07 12:31 44.16544 3.00526 27996 ft 332 kts 11°
2026-05-07 12:31 44.18783 3.01315 27994 ft 332 kts 11°
2026-05-07 12:32 44.21027 3.02105 27992 ft 332 kts 11°
2026-05-07 12:32 44.23270 3.02895 27995 ft 332 kts 11°
2026-05-07 12:32 44.25513 3.03687 27991 ft 332 kts 11°
2026-05-07 12:32 44.27756 3.04479 27991 ft 332 kts 11°
2026-05-07 12:33 44.32239 3.06064 27995 ft 332 kts 11°
2026-05-07 12:33 44.34480 3.06858 27996 ft 332 kts 11°
2026-05-07 12:33 44.36722 3.07652 28007 ft 332 kts 11°
2026-05-07 12:34 44.38962 3.08446 27995 ft 332 kts 11°
2026-05-07 12:34 44.41202 3.09239 27994 ft 332 kts 11°
2026-05-07 12:34 44.45649 3.10821 28000 ft 332 kts 11°
2026-05-07 12:35 44.47890 3.11617 27989 ft 332 kts 11°
2026-05-07 12:35 44.50127 3.12413 27992 ft 332 kts 11°
2026-05-07 12:35 44.54604 3.14008 27993 ft 331 kts 11°
2026-05-07 12:36 44.56840 3.14806 27992 ft 331 kts 11°
2026-05-07 12:36 44.59050 3.15726 27984 ft 333 kts 20°
2026-05-07 12:36 44.61035 3.17444 27974 ft 337 kts 39°
2026-05-07 12:36 44.62565 3.19928 27978 ft 338 kts 57°
2026-05-07 12:37 44.63681 3.22832 27976 ft 338 kts 65°
2026-05-07 12:37 44.64689 3.25809 27982 ft 338 kts 64°
2026-05-07 12:37 44.65788 3.28723 27987 ft 338 kts 60°
2026-05-07 12:37 44.66992 3.31556 27989 ft 337 kts 59°
2026-05-07 12:38 44.68170 3.34410 27986 ft 337 kts 60°
2026-05-07 12:38 44.69283 3.37257 27983 ft 337 kts 61°
2026-05-07 12:38 44.70420 3.40141 27981 ft 337 kts 60°
2026-05-07 12:38 44.71577 3.43016 27983 ft 337 kts 60°
2026-05-07 12:39 44.72729 3.45890 27986 ft 338 kts 60°
2026-05-07 12:39 44.73887 3.48802 27660 ft 346 kts 61°
2026-05-07 12:39 44.75023 3.51743 27211 ft 334 kts 62°
2026-05-07 12:39 44.76115 3.54535 26757 ft 317 kts 60°
2026-05-07 12:40 44.77196 3.57167 26332 ft 304 kts 60°
2026-05-07 12:40 44.78241 3.59731 25949 ft 302 kts 60°
2026-05-07 12:40 44.79262 3.62314 25579 ft 301 kts 61°
2026-05-07 12:40 44.80268 3.64893 25210 ft 300 kts 61°
2026-05-07 12:41 44.81280 3.67457 24846 ft 298 kts 61°
2026-05-07 12:41 44.82290 3.70000 24491 ft 296 kts 61°
2026-05-07 12:41 44.83290 3.72528 24135 ft 294 kts 61°
2026-05-07 12:41 44.84279 3.75039 23832 ft 292 kts 61°
2026-05-07 12:42 44.85276 3.77546 23532 ft 294 kts 61°
2026-05-07 12:42 44.86270 3.80078 23122 ft 296 kts 61°
2026-05-07 12:42 44.87269 3.82628 22691 ft 297 kts 61°
2026-05-07 12:42 44.88272 3.85184 22267 ft 298 kts 61°
2026-05-07 12:43 44.89276 3.87738 21842 ft 297 kts 61°
2026-05-07 12:43 44.90266 3.90248 21429 ft 296 kts 61°
2026-05-07 12:43 44.91270 3.92816 21007 ft 294 kts 61°
2026-05-07 12:43 44.92243 3.95303 20610 ft 293 kts 61°
2026-05-07 12:44 44.93226 3.97809 20208 ft 291 kts 61°
2026-05-07 12:44 44.94200 4.00299 19808 ft 289 kts 61°
2026-05-07 12:44 44.95166 4.02770 19417 ft 286 kts 61°
2026-05-07 12:44 44.96124 4.05226 19028 ft 284 kts 61°
2026-05-07 12:45 44.97073 4.07662 18647 ft 282 kts 61°
2026-05-07 12:45 44.98018 4.10082 18260 ft 280 kts 61°
2026-05-07 12:45 44.98953 4.12482 17831 ft 278 kts 61°
2026-05-07 12:45 44.99881 4.14868 17401 ft 276 kts 61°
2026-05-07 12:46 45.00799 4.17232 16976 ft 272 kts 61°
2026-05-07 12:46 45.01671 4.19535 16560 ft 260 kts 64°
2026-05-07 12:46 45.02303 4.21885 16142 ft 252 kts 72°
2026-05-07 12:46 45.02853 4.24214 15734 ft 247 kts 72°
2026-05-07 12:47 45.03409 4.26501 15329 ft 244 kts 71°
2026-05-07 12:47 45.03966 4.28751 14934 ft 241 kts 71°
2026-05-07 12:47 45.04515 4.30979 14542 ft 239 kts 71°
2026-05-07 12:47 45.05053 4.33175 14247 ft 233 kts 71°
2026-05-07 12:48 45.05579 4.35316 14000 ft 228 kts 71°
2026-05-07 12:48 45.06093 4.37416 13753 ft 224 kts 72°
2026-05-07 12:48 45.06598 4.39489 13485 ft 222 kts 72°
2026-05-07 12:48 45.07101 4.41543 13216 ft 219 kts 71°
2026-05-07 12:49 45.07590 4.43549 12953 ft 218 kts 72°
2026-05-07 12:49 45.08086 4.45586 12604 ft 220 kts 72°
2026-05-07 12:49 45.08584 4.47640 12240 ft 221 kts 72°
2026-05-07 12:49 45.09081 4.49690 11860 ft 218 kts 72°
2026-05-07 12:50 45.09564 4.51693 11484 ft 212 kts 72°
2026-05-07 12:50 45.10038 4.53638 11104 ft 204 kts 73°
2026-05-07 12:50 45.10490 4.55501 10729 ft 197 kts 72°
2026-05-07 12:50 45.10933 4.57313 10358 ft 193 kts 73°
2026-05-07 12:51 45.11365 4.59093 9994 ft 190 kts 73°
2026-05-07 12:51 45.11791 4.60856 9609 ft 188 kts 73°
2026-05-07 12:51 45.12212 4.62600 9204 ft 186 kts 73°
2026-05-07 12:51 45.12627 4.64320 8814 ft 184 kts 73°
2026-05-07 12:52 45.13040 4.66023 8429 ft 181 kts 73°
2026-05-07 12:52 45.13443 4.67703 8075 ft 178 kts 72°
2026-05-07 12:52 45.13844 4.69329 7890 ft 181 kts 71°
2026-05-07 12:52 45.14271 4.71059 7720 ft 190 kts 72°
2026-05-07 12:53 45.14705 4.72875 7603 ft 199 kts 72°
2026-05-07 12:53 45.15154 4.74763 7480 ft 204 kts 72°
2026-05-07 12:53 45.15610 4.76683 7365 ft 207 kts 72°
2026-05-07 12:53 45.16074 4.78614 7243 ft 208 kts 71°
2026-05-07 12:54 45.16541 4.80554 7120 ft 208 kts 71°
2026-05-07 12:54 45.17009 4.82489 7003 ft 208 kts 70°
2026-05-07 12:54 45.17773 4.84208 6876 ft 208 kts 44°
2026-05-07 12:54 45.19021 4.85214 6756 ft 208 kts 17°
2026-05-07 12:55 45.20423 4.85682 6636 ft 207 kts 12°
2026-05-07 12:55 45.21800 4.86188 6516 ft 207 kts 16°
2026-05-07 12:55 45.23169 4.86787 6392 ft 206 kts 17°
2026-05-07 12:55 45.24537 4.87382 6272 ft 205 kts 17°
2026-05-07 12:56 45.25899 4.87967 6139 ft 204 kts 16°
2026-05-07 12:56 45.27254 4.88547 6012 ft 203 kts 16°
2026-05-07 12:56 45.28604 4.89149 5879 ft 203 kts 20°
2026-05-07 12:56 45.29920 4.89863 5767 ft 202 kts 19°
2026-05-07 12:57 45.31245 4.90513 5667 ft 201 kts 19°
2026-05-07 12:57 45.32558 4.91177 5559 ft 200 kts 19°
2026-05-07 12:57 45.33866 4.91848 5456 ft 199 kts 19°
2026-05-07 12:57 45.35169 4.92520 5356 ft 199 kts 19°
2026-05-07 12:58 45.36469 4.93189 5259 ft 199 kts 19°
2026-05-07 12:58 45.37766 4.93857 5159 ft 198 kts 19°
2026-05-07 12:58 45.38623 4.94299 5089 ft 198 kts 19°
2026-05-07 12:58 45.39915 4.94962 4987 ft 197 kts 19°
2026-05-07 12:59 45.41199 4.95624 4892 ft 196 kts 19°
2026-05-07 12:59 45.42485 4.96287 4790 ft 196 kts 19°
2026-05-07 12:59 45.43768 4.96949 4676 ft 196 kts 19°
2026-05-07 12:59 45.45046 4.97609 4583 ft 195 kts 19°
2026-05-07 13:00 45.46300 4.98254 4478 ft 186 kts 19°
2026-05-07 13:00 45.47491 4.98882 4380 ft 180 kts 19°
2026-05-07 13:00 45.48660 4.99478 4274 ft 177 kts 19°
2026-05-07 13:00 45.49811 5.00076 4171 ft 175 kts 19°
2026-05-07 13:01 45.50955 5.00663 4054 ft 175 kts 18°
2026-05-07 13:01 45.52108 5.01260 3849 ft 176 kts 19°
2026-05-07 13:01 45.53259 5.01846 3684 ft 175 kts 19°
2026-05-07 13:01 45.54435 5.02214 3566 ft 173 kts 357°
2026-05-07 13:02 45.55575 5.01792 3438 ft 172 kts 340°
2026-05-07 13:02 45.56697 5.01220 3319 ft 172 kts 344°
2026-05-07 13:02 45.57845 5.00756 3197 ft 171 kts 344°
2026-05-07 13:02 45.58971 5.00271 3096 ft 168 kts 343°
2026-05-07 13:03 45.60085 4.99787 3023 ft 163 kts 344°
2026-05-07 13:03 45.61147 4.99332 2937 ft 155 kts 345°
2026-05-07 13:03 45.62097 4.98940 2750 ft 132 kts 343°
2026-05-07 13:03 45.62944 4.98570 2583 ft 124 kts 345°
2026-05-07 13:04 45.63763 4.98234 2410 ft 120 kts 343°
2026-05-07 13:04 45.64482 4.97927 2281 ft 94 kts 344°
2026-05-07 13:04 45.65067 4.97639 2141 ft 88 kts 342°
2026-05-07 13:04 45.65644 4.97386 2043 ft 87 kts 345°
2026-05-07 13:05 45.66241 4.97181 1970 ft 89 kts 346°
2026-05-07 13:05 45.66845 4.96937 1819 ft 91 kts 343°
2026-05-07 13:05 45.67440 4.96662 1658 ft 91 kts 340°
2026-05-07 13:05 45.68021 4.96378 1562 ft 86 kts 343°
2026-05-07 13:06 45.68599 4.96165 1411 ft 87 kts 346°
2026-05-07 13:06 45.69195 4.95919 1364 ft 90 kts 344°
2026-05-07 13:06 45.69782 4.95690 1200 ft 85 kts 342°
2026-05-07 13:06 45.70351 4.95436 1059 ft 83 kts 343°
2026-05-07 13:07 45.70901 4.95198 944 ft 83 kts 342°
2026-05-07 13:07 45.71460 4.94961 844 ft 84 kts 343°
2026-05-07 13:07 45.72024 4.94723 719 ft 84 kts 344°
2026-05-07 13:07 45.72529 4.94506 657 ft 65 kts 345°
2026-05-07 13:08 45.72773 4.94406 656 ft 16 kts 344°
2026-05-07 13:08 45.72848 4.94372 656 ft 9 kts 342°
2026-05-07 13:08 45.72898 4.94349 656 ft 6 kts 343°
2026-05-07 13:08 45.72939 4.94331 656 ft 7 kts 342°
2026-05-07 13:09 45.72987 4.94280 655 ft 12 kts 288°
2026-05-07 13:09 45.72990 4.94133 654 ft 18 kts 268°
2026-05-07 13:09 45.72960 4.94026 654 ft 12 kts 175°
2026-05-07 13:09 45.72882 4.94083 655 ft 14 kts 153°
2026-05-07 13:10 45.72785 4.94130 657 ft 16 kts 162°
2026-05-07 13:10 45.72695 4.94153 656 ft 11 kts 210°
2026-05-07 13:10 45.72685 4.94128 656 ft 0 kts 259°
2026-05-07 13:10 45.72686 4.94110 656 ft 8 kts 293°
2026-05-07 13:11 45.72694 4.94028 656 ft 7 kts 256°
2026-05-07 13:11 45.72698 4.94001 656 ft 9 kts 288°
2026-05-07 13:11 45.72740 4.93973 658 ft 5 kts 342°
2026-05-07 13:11 45.72743 4.93972 657 ft 0 kts 342°